This is the latest recevied weather packets stored in our database for station/object NW5W-12. If no packets are shown the sender has not sent any weather packets the latest 1 day(s).
| Time | Temp. | Humidity | Pressure | Rain* | Wind** | Luminosity | Snow |
|---|---|---|---|---|---|---|---|
| 1778073942 | 1.11° C | 83% | 1016.7 hPa | 3.56 mm | - | - | - |
| 1778072443 | 1.11° C | 82% | 1016.5 hPa | 3.56 mm | - | - | - |
| 1778067642 | 2.78° C | 83% | 1015.9 hPa | 3.56 mm | - | - | - |
| 1778066442 | 2.78° C | 87% | 1015.9 hPa | 3.56 mm | - | - | - |
| 1778063142 | 2.22° C | 96% | 1015.3 hPa | 3.56 mm | - | - | - |
| 1778062842 | 2.22° C | 96% | 1015.2 hPa | 3.56 mm | - | - | - |
| 1778058342 | 4.44° C | 92% | 1014.8 hPa | 3.05 mm | - | - | - |
| 1778057742 | 5° C | 87% | 1014.5 hPa | 1.52 mm | - | - | - |
| 1778057142 | 5.56° C | 83% | 1014.1 hPa | 0.25 mm | - | - | - |
| 1778056542 | 5.56° C | 83% | 1013.6 hPa | 0 mm | - | - | - |
| 1778055342 | 5.56° C | 83% | 1013.5 hPa | 0 mm | - | - | - |
| 1778054142 | 5.56° C | 80% | 1013.5 hPa | 0 mm | - | - | - |
| 1778053842 | 5.56° C | 80% | 1013.6 hPa | 0 mm | - | - | - |
| 1778053242 | 5.56° C | 81% | 1013.8 hPa | 0 mm | - | - | - |
| 1778052942 | 6.11° C | 81% | 1014 hPa | 0 mm | - | - | - |
| 1778051742 | 6.67° C | 75% | 1013.9 hPa | 0 mm | - | - | - |
| 1778051442 | 7.22° C | 73% | 1013.9 hPa | 0 mm | - | - | - |
| 1778051142 | 7.22° C | 71% | 1013.9 hPa | 0 mm | - | - | - |
| 1778049642 | 7.22° C | 68% | 1013.8 hPa | 0 mm | - | - | - |
| 1778048742 | 7.22° C | 68% | 1013.5 hPa | 0 mm | - | - | - |
| 1778048442 | 7.22° C | 68% | 1013.3 hPa | 0 mm | - | - | - |
| 1778048142 | 7.22° C | 68% | 1013.3 hPa | 0 mm | - | - | - |
| 1778047842 | 7.78° C | 67% | 1013.4 hPa | 0 mm | - | - | - |
| 1778047542 | 7.78° C | 67% | 1013.5 hPa | 0 mm | - | - | - |
| 1778047242 | 7.78° C | 66% | 1013.6 hPa | 0 mm | - | - | - |
* Rain since midnight (hover to see other rain measurements)
** Current wind speed in m/s (hover to see current wind gust speed)